This is the latest recevied weather packets stored in our database for station/object WS2Z. If no packets are shown the sender has not sent any weather packets the latest 10 day(s).
| Time | Temp. | Humidity | Pressure | Rain* | Wind** | Luminosity | Snow |
|---|---|---|---|---|---|---|---|
| 1777831420 | 22.78° C | 89% | 1016.5 hPa | 0 mm | - | 180 W/m² | - |
| 1777831116 | 22.78° C | 88% | 1016.5 hPa | 0 mm | - | 205 W/m² | - |
| 1777830814 | 22.78° C | 88% | 1016.5 hPa | 0 mm | - | 138 W/m² | - |
| 1777830515 | 22.78° C | 88% | 1016.5 hPa | 0 mm | - | 136 W/m² | - |
| 1777830213 | 22.78° C | 87% | 1016.6 hPa | 0 mm | - | 188 W/m² | - |
| 1777829908 | 22.78° C | 87% | 1016.5 hPa | 0 mm | - | 177 W/m² | - |
| 1777829605 | 22.78° C | 88% | 1016.5 hPa | 0 mm | - | 159 W/m² | - |
| 1777829302 | 22.78° C | 89% | 1016.6 hPa | 0 mm | - | 309 W/m² | - |
| 1777829000 | 22.22° C | 90% | 1016.8 hPa | 0 mm | - | 249 W/m² | - |
| 1777828695 | 22.22° C | 91% | 1016.8 hPa | 0 mm | - | 481 W/m² | - |
| 1777828392 | 22.22° C | 90% | 1016.8 hPa | 0 mm | - | 192 W/m² | - |
| 1777828089 | 22.78° C | 92% | 1016.7 hPa | 0 mm | - | 216 W/m² | - |
| 1777827786 | 22.22° C | 93% | 1016.8 hPa | 0 mm | - | 323 W/m² | - |
| 1777827483 | 22.22° C | 94% | 1016.9 hPa | 0 mm | - | 420 W/m² | - |
| 1777827181 | 21.67° C | 94% | 1017.1 hPa | 0 mm | - | 425 W/m² | - |
| 1777826876 | 21.67° C | 94% | 1017.1 hPa | 0 mm | - | 208 W/m² | - |
| 1777826574 | 21.11° C | 93% | 1017.1 hPa | 0 mm | - | 154 W/m² | - |
| 1777826270 | 21.11° C | 94% | 1017.4 hPa | 1.78 mm | - | 105 W/m² | - |
| 1777825968 | 21.11° C | 94% | 1017.4 hPa | 1.78 mm | - | 97 W/m² | - |
| 1777825664 | 21.11° C | 93% | 1017.4 hPa | 1.78 mm | - | 93 W/m² | - |
| 1777825363 | 21.11° C | 93% | 1017.6 hPa | 1.78 mm | - | 84 W/m² | - |
| 1777825059 | 21.11° C | 93% | 1017.7 hPa | 0 mm | - | 68 W/m² | - |
| 1777824755 | 21.67° C | 93% | 1017.5 hPa | 0 mm | - | 57 W/m² | - |
| 1777824452 | 21.11° C | 93% | 1017.8 hPa | 0 mm | - | 67 W/m² | - |
| 1777824148 | 21.67° C | 93% | 1017.6 hPa | 0 mm | - | 80 W/m² | - |
* Rain latest hour (hover to see other rain measurements)
** Current wind speed in m/s (hover to see current wind gust speed)